When you browse on this site, cookies collect data to enhance your experience and personalize the content and advertising you see.
Visit our Privacy Policy to learn more. By continuing to use the site, you agree to this use of cookies and data.
  • In Sweden
  • List of Countries
  • For 7 days
  • Water Temperature
  • Satellite Maps
  • Weather Map
  • Weather Widgets
  • user-avatar
    Login

    Hourly Weather Carevo

    Today, 22 May, Wednesday

    Time Temperature Precipitation Wind Pressure Humidity
    00:00 +16°C° 2.3 mm 1 mps 752 mmHg 93%
    01:00 +16°C° 2.3 mm 1 mps 752 mmHg 94%
    02:00 +16°C° 0 mm 1 mps 751 mmHg 95%
    03:00 +16°C° 0.4 mm 1 mps 751 mmHg 95%
    04:00 +15°C° 0.4 mm 0 mps 751 mmHg 95%
    05:00 +15°C° 0.4 mm 0 mps 751 mmHg 95%
    06:00 +16°C° 0.3 mm 0 mps 751 mmHg 92%
    07:00 +20°C° 0.3 mm 1 mps 751 mmHg 88%
    08:00 +21°C° 0.3 mm 1 mps 751 mmHg 84%
    09:00 +22°C° 1.7 mm 1 mps 751 mmHg 81%
    10:00 +23°C° 1.7 mm 1 mps 750 mmHg 78%
    11:00 +24°C° 1.7 mm 1 mps 750 mmHg 75%
    12:00 +25°C° 0.3 mm 1 mps 750 mmHg 70%
    13:00 +25°C° 0.3 mm 1 mps 750 mmHg 64%
    14:00 +26°C° 0.3 mm 1 mps 750 mmHg 59%
    15:00 +26°C° 0.1 mm 1 mps 749 mmHg 60%
    16:00 +26°C° 0.1 mm 1 mps 749 mmHg 61%
    17:00 +25°C° 0.1 mm 1 mps 749 mmHg 62%
    18:00 +22°C° 0.7 mm 0 mps 749 mmHg 70%
    19:00 +20°C° 0.7 mm 0 mps 749 mmHg 77%
    20:00 +18°C° 0.7 mm 0 mps 749 mmHg 85%
    21:00 +17°C° 0.1 mm 0 mps 749 mmHg 87%
    22:00 +16°C° 0.1 mm 0 mps 748 mmHg 89%
    23:00 +15°C° 0.1 mm 0 mps 748 mmHg 91%

    Tomorrow, 23 May, Thursday

    Time Temperature Precipitation Wind Pressure Humidity
    00:00 +15°C° 0.1 mm 0 mps 748 mmHg 92%
    01:00 +14°C° 0.1 mm 0 mps 748 mmHg 93%
    02:00 +14°C° 0.1 mm 0 mps 748 mmHg 94%
    03:00 +15°C° 0 mm 1 mps 748 mmHg 94%
    04:00 +15°C° 0 mm 1 mps 748 mmHg 94%
    05:00 +15°C° 0 mm 1 mps 748 mmHg 95%
    06:00 +18°C° 0 mm 1 mps 748 mmHg 91%
    07:00 +19°C° 0 mm 1 mps 748 mmHg 88%
    08:00 +21°C° 0 mm 1 mps 748 mmHg 84%
    09:00 +21°C° 0.1 mm 2 mps 748 mmHg 76%
    10:00 +23°C° 0.1 mm 2 mps 748 mmHg 68%
    11:00 +25°C° 0.1 mm 2 mps 748 mmHg 60%
    12:00 +24°C° 0.9 mm 2 mps 748 mmHg 64%
    13:00 +24°C° 0.9 mm 2 mps 748 mmHg 69%
    14:00 +24°C° 0.9 mm 2 mps 748 mmHg 74%
    15:00 +23°C° 0.8 mm 2 mps 748 mmHg 76%
    16:00 +23°C° 0.8 mm 2 mps 748 mmHg 78%
    17:00 +21°C° 0.8 mm 2 mps 748 mmHg 81%
    18:00 +20°C° 0.2 mm 2 mps 749 mmHg 84%
    19:00 +18°C° 0.2 mm 2 mps 749 mmHg 88%
    20:00 +17°C° 0.2 mm 2 mps 749 mmHg 91%
    21:00 +16°C° 0 mm 2 mps 750 mmHg 92%
    22:00 +14°C° 0 mm 2 mps 750 mmHg 92%
    23:00 +13°C° 0 mm 2 mps 751 mmHg 93%

    Day after tomorrow, 24 May, Friday

    Time Temperature Precipitation Wind Pressure Humidity
    00:00 +13°C° 0 mm 2 mps 751 mmHg 93%
    01:00 +12°C° 0 mm 2 mps 751 mmHg 94%
    02:00 +10°C° 0 mm 2 mps 751 mmHg 94%
    03:00 +10°C° 0 mm 2 mps 751 mmHg 94%
    04:00 +10°C° 0 mm 2 mps 751 mmHg 93%
    05:00 +10°C° 0 mm 2 mps 752 mmHg 93%
    06:00 +13°C° 0 mm 2 mps 752 mmHg 87%
    07:00 +14°C° 0 mm 2 mps 752 mmHg 81%
    08:00 +16°C° 0 mm 2 mps 752 mmHg 76%
    09:00 +17°C° 0 mm 2 mps 751 mmHg 69%
    10:00 +19°C° 0 mm 3 mps 751 mmHg 63%
    11:00 +20°C° 0 mm 3 mps 751 mmHg 57%
    12:00 +21°C° 0 mm 3 mps 751 mmHg 55%
    13:00 +22°C° 0 mm 3 mps 750 mmHg 54%
    14:00 +23°C° 0 mm 2 mps 750 mmHg 52%
    15:00 +23°C° 0.1 mm 2 mps 750 mmHg 57%
    16:00 +23°C° 0.1 mm 2 mps 749 mmHg 62%
    17:00 +22°C° 0.1 mm 1 mps 749 mmHg 68%
    18:00 +21°C° 0.7 mm 1 mps 749 mmHg 75%
    19:00 +19°C° 0.7 mm 1 mps 749 mmHg 82%
    20:00 +18°C° 0.7 mm 1 mps 749 mmHg 90%
    21:00 +16°C° 0.5 mm 1 mps 748 mmHg 92%
    22:00 +15°C° 0.5 mm 1 mps 748 mmHg 94%
    23:00 +15°C° 0.5 mm 1 mps 748 mmHg 96%

    25 May, Saturday

    Time Temperature Precipitation Wind Pressure Humidity
    00:00 +14°C° 0 mm 1 mps 748 mmHg 97%
    01:00 +14°C° 0 mm 1 mps 748 mmHg 98%
    02:00 +13°C° 0 mm 2 mps 748 mmHg 98%
    03:00 +13°C° 0 mm 2 mps 748 mmHg 98%
    04:00 +13°C° 0 mm 2 mps 748 mmHg 98%
    05:00 +13°C° 0 mm 2 mps 748 mmHg 98%
    06:00 +13°C° 0 mm 2 mps 748 mmHg 94%
    07:00 +14°C° 0 mm 1 mps 748 mmHg 91%
    08:00 +14°C° 0 mm 1 mps 748 mmHg 88%
    09:00 +16°C° 0 mm 2 mps 748 mmHg 76%
    10:00 +18°C° 0 mm 2 mps 748 mmHg 64%
    11:00 +19°C° 0 mm 2 mps 748 mmHg 51%
    12:00 +20°C° 0 mm 2 mps 747 mmHg 50%
    13:00 +21°C° 0 mm 3 mps 747 mmHg 48%
    14:00 +21°C° 0 mm 3 mps 746 mmHg 47%
    15:00 +21°C° 0 mm 3 mps 746 mmHg 48%
    16:00 +20°C° 0 mm 3 mps 745 mmHg 50%
    17:00 +20°C° 0 mm 3 mps 745 mmHg 51%
    18:00 +18°C° 0.3 mm 3 mps 745 mmHg 64%
    19:00 +16°C° 0.3 mm 3 mps 745 mmHg 76%
    20:00 +14°C° 0.3 mm 2 mps 745 mmHg 89%
    21:00 +11°C° 0 mm 3 mps 745 mmHg 91%
    22:00 +10°C° 0 mm 3 mps 745 mmHg 93%
    23:00 +9°C° 0 mm 3 mps 745 mmHg 95%

    26 May, Sunday

    Time Temperature Precipitation Wind Pressure Humidity
    00:00 +8°C° 0 mm 2 mps 745 mmHg 95%
    01:00 +8°C° 0 mm 2 mps 745 mmHg 95%
    02:00 +7°C° 0 mm 2 mps 745 mmHg 95%
    03:00 +7°C° 0 mm 2 mps 745 mmHg 95%
    04:00 +7°C° 0 mm 3 mps 745 mmHg 95%
    05:00 +7°C° 0 mm 3 mps 745 mmHg 94%
    06:00 +8°C° 0 mm 3 mps 745 mmHg 92%
    07:00 +9°C° 0 mm 3 mps 744 mmHg 89%
    08:00 +9°C° 0 mm 3 mps 744 mmHg 87%
    09:00 +10°C° 0.1 mm 3 mps 744 mmHg 82%
    10:00 +11°C° 0.1 mm 3 mps 744 mmHg 77%
    11:00 +12°C° 0.1 mm 3 mps 744 mmHg 72%
    12:00 +13°C° 0 mm 3 mps 744 mmHg 70%
    13:00 +13°C° 0 mm 3 mps 744 mmHg 67%
    14:00 +14°C° 0 mm 3 mps 744 mmHg 65%
    15:00 +13°C° 0.7 mm 3 mps 743 mmHg 75%
    16:00 +12°C° 0.7 mm 3 mps 743 mmHg 85%
    17:00 +11°C° 0.7 mm 3 mps 743 mmHg 95%
    18:00 +11°C° 0.5 mm 3 mps 743 mmHg 95%
    19:00 +10°C° 0.5 mm 3 mps 742 mmHg 95%
    20:00 +10°C° 0.5 mm 3 mps 742 mmHg 95%
    21:00 +9°C° 0.9 mm 3 mps 742 mmHg 95%
    22:00 +8°C° 0.9 mm 3 mps 742 mmHg 96%
    23:00 +7°C° 0.9 mm 4 mps 742 mmHg 96%

    27 May, Monday

    Time Temperature Precipitation Wind Pressure Humidity
    00:00 +6°C° 1.2 mm 4 mps 742 mmHg 96%
    01:00 +7°C° 1.2 mm 3 mps 742 mmHg 96%
    02:00 +5°C° 1.2 mm 3 mps 742 mmHg 96%
    03:00 +5°C° 1.3 mm 3 mps 742 mmHg 96%
    04:00 +5°C° 1.3 mm 4 mps 743 mmHg 97%
    05:00 +5°C° 1.3 mm 4 mps 743 mmHg 97%
    06:00 +6°C° 0.2 mm 4 mps 743 mmHg 95%
    07:00 +6°C° 0.2 mm 4 mps 744 mmHg 94%
    08:00 +7°C° 0.2 mm 4 mps 744 mmHg 93%
    09:00 +10°C° 0 mm 4 mps 745 mmHg 86%
    10:00 +11°C° 0 mm 3 mps 745 mmHg 79%
    11:00 +13°C° 0 mm 3 mps 746 mmHg 72%
    12:00 +14°C° 0.1 mm 3 mps 746 mmHg 68%
    13:00 +16°C° 0.1 mm 3 mps 747 mmHg 63%
    14:00 +17°C° 0.1 mm 3 mps 747 mmHg 58%
    15:00 +17°C° 0.1 mm 3 mps 747 mmHg 58%
    16:00 +17°C° 0.1 mm 3 mps 747 mmHg 59%
    17:00 +17°C° 0.1 mm 3 mps 747 mmHg 59%
    18:00 +16°C° 0 mm 3 mps 748 mmHg 67%
    19:00 +14°C° 0 mm 2 mps 748 mmHg 74%
    20:00 +13°C° 0 mm 2 mps 748 mmHg 82%
    21:00 +12°C° 0 mm 2 mps 748 mmHg 84%
    22:00 +12°C° 0 mm 2 mps 748 mmHg 87%
    23:00 +10°C° 0 mm 2 mps 749 mmHg 89%
    Show more